星链-4065 (STARLINK-4065 )

导读

STARLINK-4065是美国SpaceX公司星链(Starlink)星座中的一颗互联网通信卫星,于2022年6月17日发射升空,属于星链低轨星座组网卫星,单星质量约297千克,运行在约548千米高度的近地轨道。作为星链星座的组成部分,它旨在为全球提供高速宽带互联网服务,搭载霍尔推进器,具备自主避撞能力,寿命结束后会主动离轨坠入大气层烧毁。

基本信息
目录编号:
52841
目录名称:
STARLINK-4065
国际标识:
2022-062M
轨道中心:
EARTH
卫星名称:
星链-4065
卫星全名:
星链-4065 (STARLINK-4065 )
卫星状态:
在轨 (已飞行1461 天)
发射日期:
2022-06-17 UTC
国别 :
美国 (US)
星等 :
--
轨道信息
数据来源 国际轨道数据 AOE轨道数据
星历时间 2026-06-17T00:34:36+0800
21小时前
查看轨道信息
2026-06-16T14:00:00+0800
1天前
查看轨道信息
半长轴 6917.917km 6917.911km
偏心率 0.0001266 0.0001411
轨道倾角 53.161° 53.160°
近地点辐角 88.725° 73.820°
升交点赤经 309.593° 311.576°
平近点角 271.389° 51.234°
近地点 538.904km 538.797km
远地点 540.656km 540.751km
周期 95.438分钟 95.438分钟
每日圈数 15.088281 15.088302
详细信息
固有亮度:
5
最大亮度:
2.5
卫星平台:
Starlink v1.5
覆盖范围:
全球
运营商:
太空探索技术公司
运营商所在国:
美国
制造商(研发单位):
太空探索技术公司
制造商所在国:
美国
使用方式:
暂无
卫星简介
星链(Starlink)计划是由太空探索技术公司(SpaceX)提出的一个巨型低轨卫星互联网星座项目,计划在2019年至2024年间在太空搭建由约1.2万颗卫星组成的“星链”网络,其中1584颗将部署在地球上空550千米处的近地轨道,并从2020年开始工作。该卫星仍在工作。
2D轨道图
3D轨道图
轨道高度分析图
轨道倾角分析图
轨道综合分析图
查看轨道综合分析图